• In Belarus
  • List of Countries
  • For 7 days
  • Water Temperature
  • Weather Map
  • Weather Widgets
  • user-avatar
    Login

    Hourly Weather Aktam

    Today, 24 January, Friday

    Time Temperature Precipitation Wind Pressure Humidity
    00:00 -9°C° 0 mm 2 mps 664 mmHg 60%
    01:00 -9°C° 0 mm 2 mps 664 mmHg 58%
    02:00 -9°C° 0 mm 2 mps 663 mmHg 57%
    03:00 -9°C° 0 mm 2 mps 663 mmHg 54%
    04:00 -9°C° 0 mm 2 mps 663 mmHg 52%
    05:00 -8°C° 0 mm 2 mps 663 mmHg 49%
    06:00 -8°C° 0 mm 2 mps 662 mmHg 49%
    07:00 -8°C° 0 mm 2 mps 662 mmHg 48%
    08:00 -8°C° 0 mm 2 mps 661 mmHg 47%
    09:00 -6°C° 0 mm 2 mps 661 mmHg 53%
    10:00 -5°C° 0 mm 2 mps 660 mmHg 58%
    11:00 -2°C° 0 mm 1 mps 659 mmHg 64%
    12:00 -1°C° 0 mm 1 mps 658 mmHg 66%
    13:00 -3°C° 0 mm 2 mps 657 mmHg 67%
    14:00 -3°C° 0 mm 2 mps 657 mmHg 69%
    15:00 -4°C° 0 mm 2 mps 656 mmHg 62%
    16:00 -5°C° 0 mm 2 mps 655 mmHg 55%
    17:00 -5°C° 0 mm 2 mps 655 mmHg 48%
    18:00 -5°C° 0 mm 2 mps 656 mmHg 50%
    19:00 -4°C° 0 mm 2 mps 656 mmHg 51%
    20:00 -3°C° 0 mm 2 mps 657 mmHg 52%
    21:00 -4°C° 0 mm 3 mps 658 mmHg 53%
    22:00 -4°C° 0 mm 3 mps 658 mmHg 53%
    23:00 -4°C° 0 mm 3 mps 659 mmHg 54%

    Tomorrow, 25 January, Saturday

    Time Temperature Precipitation Wind Pressure Humidity
    00:00 -4°C° 0 mm 3 mps 660 mmHg 56%
    01:00 -4°C° 0 mm 3 mps 661 mmHg 57%
    02:00 -4°C° 0 mm 3 mps 661 mmHg 59%
    03:00 -4°C° 0.2 mm 3 mps 662 mmHg 68%
    04:00 -2°C° 0.2 mm 2 mps 663 mmHg 76%
    05:00 -2°C° 0.2 mm 2 mps 664 mmHg 85%
    06:00 -3°C° 0.2 mm 2 mps 664 mmHg 86%
    07:00 -1°C° 0.2 mm 1 mps 664 mmHg 88%
    08:00 -3°C° 0.2 mm 0 mps 665 mmHg 89%
    09:00 -1°C° 0 mm 1 mps 664 mmHg 90%
    10:00 -1°C° 0 mm 1 mps 664 mmHg 90%
    11:00 -3°C° 0 mm 2 mps 664 mmHg 91%
    12:00 0°C° 0 mm 1 mps 663 mmHg 91%
    13:00 0°C° 0 mm 1 mps 663 mmHg 92%
    14:00 0°C° 0 mm 1 mps 662 mmHg 92%
    15:00 -1°C° 0 mm 1 mps 662 mmHg 92%
    16:00 -2°C° 0 mm 1 mps 662 mmHg 92%
    17:00 -4°C° 0 mm 1 mps 662 mmHg 92%
    18:00 -4°C° 0 mm 1 mps 662 mmHg 89%
    19:00 -4°C° 0 mm 1 mps 662 mmHg 87%
    20:00 -6°C° 0 mm 2 mps 662 mmHg 84%
    21:00 -4°C° 0 mm 1 mps 662 mmHg 82%
    22:00 -6°C° 0 mm 1 mps 661 mmHg 80%
    23:00 -6°C° 0 mm 1 mps 661 mmHg 78%

    Day after tomorrow, 26 January, Sunday

    Time Temperature Precipitation Wind Pressure Humidity
    00:00 -6°C° 0 mm 1 mps 661 mmHg 75%
    01:00 -6°C° 0 mm 1 mps 662 mmHg 73%
    02:00 -6°C° 0 mm 1 mps 662 mmHg 70%
    03:00 -6°C° 0 mm 1 mps 662 mmHg 70%
    04:00 -6°C° 0 mm 1 mps 662 mmHg 69%
    05:00 -7°C° 0 mm 2 mps 662 mmHg 69%
    06:00 -6°C° 0 mm 1 mps 663 mmHg 75%
    07:00 -4°C° 0 mm 1 mps 663 mmHg 81%
    08:00 -4°C° 0 mm 1 mps 664 mmHg 86%
    09:00 -3°C° 0.1 mm 1 mps 664 mmHg 89%
    10:00 -2°C° 0.1 mm 1 mps 664 mmHg 92%
    11:00 -2°C° 0.1 mm 1 mps 665 mmHg 95%
    12:00 -2°C° 0.1 mm 1 mps 664 mmHg 95%
    13:00 -2°C° 0.1 mm 1 mps 664 mmHg 96%
    14:00 -4°C° 0.1 mm 2 mps 664 mmHg 96%
    15:00 -3°C° 0 mm 1 mps 664 mmHg 97%
    16:00 -3°C° 0 mm 1 mps 664 mmHg 97%
    17:00 -4°C° 0 mm 1 mps 664 mmHg 97%
    18:00 -6°C° 0 mm 1 mps 664 mmHg 95%
    19:00 -6°C° 0 mm 1 mps 664 mmHg 93%
    20:00 -6°C° 0 mm 1 mps 664 mmHg 91%
    21:00 -7°C° 0 mm 1 mps 663 mmHg 88%
    22:00 -7°C° 0 mm 1 mps 663 mmHg 86%
    23:00 -7°C° 0 mm 1 mps 663 mmHg 83%

    27 January, Monday

    Time Temperature Precipitation Wind Pressure Humidity
    00:00 -8°C° 0 mm 1 mps 663 mmHg 82%
    01:00 -8°C° 0 mm 1 mps 662 mmHg 80%
    02:00 -8°C° 0 mm 1 mps 662 mmHg 78%
    03:00 -8°C° 0 mm 1 mps 662 mmHg 77%
    04:00 -8°C° 0 mm 1 mps 662 mmHg 77%
    05:00 -8°C° 0 mm 1 mps 662 mmHg 76%
    06:00 -8°C° 0 mm 1 mps 662 mmHg 75%
    07:00 -8°C° 0 mm 1 mps 662 mmHg 74%
    08:00 -7°C° 0 mm 1 mps 662 mmHg 74%
    09:00 -6°C° 0 mm 1 mps 662 mmHg 74%
    10:00 -4°C° 0 mm 1 mps 661 mmHg 75%
    11:00 -3°C° 0 mm 1 mps 661 mmHg 76%
    12:00 -2°C° 0 mm 1 mps 661 mmHg 76%
    13:00 -2°C° 0 mm 1 mps 661 mmHg 76%
    14:00 -2°C° 0 mm 1 mps 660 mmHg 76%
    15:00 -3°C° 0 mm 1 mps 660 mmHg 73%
    16:00 -6°C° 0 mm 2 mps 660 mmHg 69%
    17:00 -8°C° 0 mm 2 mps 660 mmHg 65%
    18:00 -8°C° 0 mm 2 mps 660 mmHg 62%
    19:00 -8°C° 0 mm 2 mps 661 mmHg 59%
    20:00 -8°C° 0 mm 2 mps 661 mmHg 56%
    21:00 -8°C° 0 mm 2 mps 661 mmHg 58%
    22:00 -7°C° 0 mm 1 mps 661 mmHg 59%
    23:00 -7°C° 0 mm 1 mps 661 mmHg 60%

    28 January, Tuesday

    Time Temperature Precipitation Wind Pressure Humidity
    00:00 -7°C° 0 mm 1 mps 662 mmHg 64%
    01:00 -8°C° 0 mm 2 mps 662 mmHg 68%
    02:00 -8°C° 0 mm 2 mps 662 mmHg 73%
    03:00 -8°C° 0.1 mm 2 mps 663 mmHg 79%
    04:00 -7°C° 0.1 mm 2 mps 663 mmHg 86%
    05:00 -7°C° 0.1 mm 2 mps 664 mmHg 93%
    06:00 -7°C° 0.2 mm 2 mps 665 mmHg 93%
    07:00 -7°C° 0.2 mm 2 mps 665 mmHg 93%
    08:00 -7°C° 0.2 mm 2 mps 666 mmHg 94%
    09:00 -6°C° 0.2 mm 2 mps 667 mmHg 92%
    10:00 -6°C° 0.2 mm 2 mps 667 mmHg 90%
    11:00 -5°C° 0.2 mm 2 mps 668 mmHg 88%
    12:00 -5°C° 0.1 mm 2 mps 668 mmHg 88%
    13:00 -5°C° 0.1 mm 2 mps 668 mmHg 89%
    14:00 -5°C° 0.1 mm 2 mps 668 mmHg 89%
    15:00 -6°C° 0 mm 2 mps 669 mmHg 87%
    16:00 -6°C° 0 mm 1 mps 669 mmHg 85%
    17:00 -8°C° 0 mm 1 mps 669 mmHg 83%
    18:00 -8°C° 0 mm 1 mps 670 mmHg 80%
    19:00 -8°C° 0 mm 1 mps 670 mmHg 77%
    20:00 -9°C° 0 mm 1 mps 671 mmHg 74%
    21:00 -9°C° 0 mm 1 mps 670 mmHg 73%
    22:00 -10°C° 0 mm 1 mps 670 mmHg 71%
    23:00 -10°C° 0 mm 1 mps 670 mmHg 70%

    29 January, Wednesday

    Time Temperature Precipitation Wind Pressure Humidity
    00:00 -10°C° 0 mm 1 mps 670 mmHg 70%
    01:00 -11°C° 0 mm 1 mps 670 mmHg 70%
    02:00 -11°C° 0 mm 1 mps 670 mmHg 71%
    03:00 -11°C° 0 mm 1 mps 670 mmHg 72%
    04:00 -11°C° 0 mm 1 mps 670 mmHg 74%
    05:00 -12°C° 0 mm 1 mps 669 mmHg 76%
    06:00 -11°C° 0 mm 1 mps 669 mmHg 76%
    07:00 -11°C° 0 mm 1 mps 669 mmHg 76%
    08:00 -11°C° 0 mm 1 mps 669 mmHg 76%
    09:00 -9°C° 0 mm 1 mps 669 mmHg 76%
    10:00 -8°C° 0 mm 1 mps 669 mmHg 77%
    11:00 -6°C° 0 mm 1 mps 668 mmHg 77%
    12:00 -6°C° 0 mm 1 mps 668 mmHg 77%
    13:00 -4°C° 0 mm 1 mps 667 mmHg 77%
    14:00 -4°C° 0 mm 1 mps 667 mmHg 77%
    15:00 -6°C° 0 mm 1 mps 667 mmHg 74%
    16:00 -8°C° 0 mm 1 mps 666 mmHg 70%
    17:00 -9°C° 0 mm 1 mps 666 mmHg 67%
    18:00 -9°C° 0 mm 1 mps 666 mmHg 63%
    19:00 -9°C° 0 mm 1 mps 667 mmHg 59%
    20:00 -10°C° 0 mm 2 mps 667 mmHg 55%
    21:00 -9°C° 0 mm 1 mps 667 mmHg 53%
    22:00 -9°C° 0 mm 1 mps 667 mmHg 50%
    23:00 -9°C° 0 mm 1 mps 667 mmHg 47%
    Show more